Home   Weather   Columbus   Past weeks
Flag for Canada

Past Weather in Columbus, Ontario, Canada — Yesterday and Last 2 Weeks

Now
70 °F

Overcast.


Feels Like: 70 °F
Forecast: 78 / 67 °F
Wind: 5 mph from Northeast

Location: Oshawa

Current Time: Jul 18, 2019 at 7:16:59 am

Latest Report: Jul 18, 2019 at 6:00 am


Visibility: 9 mi

Pressure: 29.95 "Hg

Humidity: 94%

Dew Point: 68 °F

Location of ColumbusLocation

Past Weather in Columbus — Graph

°F

Columbus Temperature Yesterday

Maximum temperature yesterday: 81 °F (at 2:51 pm)
Minimum temperature yesterday: 70 °F (at 6:25 am)
Average temperature yesterday: 74 °F

High & Low Weather Summary for the Past Weeks

 TemperatureHumidityPressure
High90 °F (Jul 16, 2:00 pm)100% (Jul 3, 6:00 am)30.13 "Hg (Jul 3, 6:00 am)
Low54 °F (Jul 10, 3:00 am)32% (Jul 9, 4:00 pm)29.70 "Hg (Jul 11, 2:26 pm)
Average72 °F73%29.95 "Hg
* Reported Jul 3 6:00 am — Jul 18 6:00 am, Columbus. Weather by CustomWeather, © 2019

Note: Actual official high and low records may vary slightly from our data, if they occured in-between our weather recording intervals... More about our weather records

Advertising

Columbus Weather History for the Previous 24 Hours

Scroll right to see more
 ConditionsComfort  
Time TempWeatherWind HumidityBarometerVisibility
6:00 am
Thu, Jul 18
70 °FOvercast.5 mph94%29.95 "Hg9 mi
5:00 am70 °FOvercast.7 mph94%29.93 "Hg9 mi
4:05 am70 °FOvercast.5 mph100%29.93 "Hg9 mi
4:03 am72 °FOvercast.6 mph94%29.93 "Hg9 mi
3:33 am72 °FOvercast.6 mph94%29.93 "Hg9 mi
3:06 am70 °FFog.3 mph100%29.93 "Hg6 mi
2:44 am70 °FFog.5 mph100%29.93 "Hg5 mi
2:29 am70 °FFog.3 mph100%29.93 "Hg6 mi
2:00 am70 °FFog.5 mph100%29.93 "Hg5 mi
1:00 am70 °FFog.5 mph100%29.93 "Hg5 mi
12:00 am70 °FFog.3 mph100%29.93 "Hg3 mi
11:00 pm
Wed, Jul 17
72 °FFog.5 mph100%29.92 "Hg2 mi
10:38 pm72 °FFog.3 mph94%29.92 "Hg2 mi
10:19 pm72 °FFog.3 mph94%29.91 "Hg5 mi
10:00 pm72 °FClear.5 mph94%29.91 "Hg8 mi
9:38 pm72 °FPassing clouds.5 mph100%29.91 "Hg9 mi
9:00 pm75 °FOvercast.3 mph89%29.89 "Hg9 mi
8:00 pm77 °FSunny.5 mph79%29.88 "Hg9 mi
7:00 pm79 °FSunny.6 mph79%29.87 "Hg9 mi
6:00 pm79 °FScattered clouds.3 mph79%29.85 "Hg9 mi
5:54 pm79 °FBroken clouds.5 mph79%29.85 "Hg9 mi
5:24 pm81 °FLight rain. Scattered clouds.8 mph74%29.85 "Hg9 mi
4:00 pm81 °FPassing clouds.6 mph74%29.86 "Hg9 mi
3:16 pm81 °FScattered clouds.7 mph74%29.86 "Hg9 mi
2:51 pm81 °FPartly sunny.2 mph74%29.88 "Hg9 mi
2:17 pm79 °FBroken clouds.5 mph79%29.88 "Hg9 mi
2:00 pm79 °FScattered clouds.5 mph79%29.89 "Hg9 mi
1:27 pm75 °FBroken clouds.2 mph89%29.88 "Hg9 mi
1:00 pm75 °FCloudy.7 mph89%29.89 "Hg9 mi
12:33 pm75 °FFog.5 mph94%29.89 "Hg3 mi
12:07 pm73 °FFog.3 mph100%29.89 "Hg3 mi
11:46 am73 °FFog.2 mph100%29.90 "Hg3 mi
11:31 am73 °FLight rain. Fog.3 mph94%29.89 "Hg3 mi
11:00 am73 °FFog.3 mph94%29.89 "Hg3 mi
10:29 am73 °FFog.3 mph100%29.89 "Hg3 mi
10:00 am73 °FFog.5 mph100%29.89 "Hg3 mi
9:28 am72 °FFog.2 mph100%29.89 "Hg3 mi
9:16 am72 °FLight rain. Fog.3 mph100%29.89 "Hg2 mi
8:53 am72 °FFog.No wind100%29.89 "Hg4 mi
8:15 am72 °FLight rain. Fog.2 mph100%29.88 "Hg3 mi
8:05 am72 °FFog.2 mph100%29.88 "Hg3 mi
7:43 am72 °FFog.No wind100%29.88 "Hg3 mi
7:16 am70 °FFog.5 mph100%29.88 "Hg3 mi
7:00 am70 °FLight rain. Fog.6 mph100%29.88 "Hg5 mi
Weather by CustomWeather, © 2019

See weather overview